ORBCOMM FM11 [+]

Last updated on Thu Dec 28 2023 00:02:54 GMT+0000 (Coordinated Universal Time)

1 25114U 97084C 23361.31700229 .00002616 00000+0 84028-3 0 9999 2 25114 45.0153 62.9352 0004746 5.2563 354.8336 14.41576366363762

Satellite not in orbit

ORBCOMM FM11 [+]